Tracking 19570 objects as of 21-Feb-2019
HD Live streaming from Space Station
objects crossing your sky now

COSMOS 1257

Track COSMOS 1257 now!
10-day predictions
COSMOS 1257 is classified as:


NORAD ID: 12327
Int'l Code: 1981-022H
Perigee: 1,475.2 km
Apogee: 1,486.4 km
Inclination: 74.0 °
Period: 115.4 minutes
Semi major axis: 7851 km
RCS: 0.7143 m2 (medium)
Launch date: March 6, 1981
Source: Commonwealth of Independent States (former USSR) (CIS)
Launch site: PLESETSK MISSILE AND SPACE COMPLEX (PKMTR)
aabbcc
Your satellite tracking list
Your tracking list is empty




NASA's NSSDC Master Catalog

Two Line Element Set (TLE):
1 12327U 81022H   19052.16488567 -.00000016  00000-0 -29918-5 0  9993
2 12327  74.0324 357.1917 0007174 331.8341 134.7777 12.47814370729474
Source of the keplerian elements: AFSPC